User: anonymous   Login
Location: Los Gatos B&B
(42.6926°N, 77.0646°W)
Time: 15:27:27
(UTC-05:00)
Language:

SL-16 R/B - Orbit

View from above orbital plane
View from above orbital plane
View from above satellite
View from above satellite

Ground track
Ground track

The orbit data is extracted from the following two-line orbital elements,

1 28353U 04021B   14332.32384102 -.00000213  00000-0 -86682-4 0  8939
2 28353 071.0007 232.6189 0005137 201.1518 297.1027 14.14100575540424
Epoch (UTC): 28 November 2014 07:46:19
Eccentricity: 0.0005137
inclination: 71.0007°
perigee height: 841 km
apogee height: 849 km
right ascension of ascending node: 232.6189°
argument of perigee: 201.1518°
revolutions per day: 14.14100575
mean anomaly at epoch: 297.1027°
orbit number at epoch: 54042

The dashed part of the orbit path shows where the satellite is in the earth's shadow,  

DLR